H2SAT (HEINRICH HERTZ)

Last updated on Wed Mar 11 2026 00:02:56 GMT+0000 (Coordinated Universal Time)

1 57213U 23093A 26069.33378270 .00000003 00000+0 00000+0 0 9992 2 57213 0.0379 301.8238 0001761 160.7456 186.2743 1.00272469 9920
UTC large
Height (km)
Speed (km/s)
/
Latitude / Longitude
Inclination (degrees)
Orbital Period (minutes)
Azimuth
Elevation
Range (km)
Doppler Factor

Next 0 passes for location: London (51.5072 / 0.1276)

Sorry there are no passes over London.